This is the latest recevied weather packets stored in our database for station/object AA1FF. If no packets are shown the sender has not sent any weather packets the latest 10 day(s).
| Time | Temp. | Humidity | Pressure | Rain* | Wind** | Luminosity | Snow |
|---|---|---|---|---|---|---|---|
| 1777654126 | 13.33° C | 47% | 1010 hPa | 0 mm | - | 848 W/m² | - |
| 1777653823 | 13.33° C | 47% | 1010 hPa | 0 mm | - | 1023 W/m² | - |
| 1777653524 | 13.33° C | 47% | 1010 hPa | 0 mm | - | 1092 W/m² | - |
| 1777653224 | 13.33° C | 47% | 1010 hPa | 0 mm | - | 359 W/m² | - |
| 1777652924 | 13.89° C | 47% | 1010 hPa | 0 mm | - | 485 W/m² | - |
| 1777652624 | 13.89° C | 46% | 1010 hPa | 0 mm | - | 251 W/m² | - |
| 1777652324 | 13.33° C | 47% | 1010 hPa | 0 mm | - | 783 W/m² | - |
| 1777652023 | 12.78° C | 49% | 1010 hPa | 0 mm | - | 1067 W/m² | - |
| 1777651726 | 12.78° C | 52% | 1011 hPa | 0 mm | - | 259 W/m² | - |
| 1777651425 | 12.78° C | 50% | 1011 hPa | 0 mm | - | 1092 W/m² | - |
| 1777651128 | 12.78° C | 52% | 1011 hPa | 0 mm | - | 559 W/m² | - |
| 1777650823 | 13.33° C | 50% | 1011 hPa | 0 mm | - | 575 W/m² | - |
| 1777650238 | 12.78° C | 49% | 1011 hPa | 0 mm | - | 1025 W/m² | - |
| 1777649924 | 12.78° C | 50% | 1011 hPa | 0 mm | - | 901 W/m² | - |
| 1777649625 | 12.78° C | 51% | 1011 hPa | 0 mm | - | 934 W/m² | - |
| 1777649324 | 12.78° C | 51% | 1011 hPa | 0 mm | - | 916 W/m² | - |
| 1777649024 | 12.78° C | 47% | 1011 hPa | 0 mm | - | 902 W/m² | - |
| 1777648725 | 12.22° C | 49% | 1011 hPa | 0 mm | - | 904 W/m² | - |
| 1777648425 | 11.67° C | 50% | 1011 hPa | 0 mm | - | 921 W/m² | - |
| 1777648124 | 11.67° C | 50% | 1011 hPa | 0 mm | - | 895 W/m² | - |
| 1777647824 | 11.11° C | 53% | 1011 hPa | 0 mm | - | 896 W/m² | - |
| 1777647523 | 11.11° C | 55% | 1011 hPa | 0 mm | - | 977 W/m² | - |
| 1777647224 | 11.11° C | 56% | 1011 hPa | 0 mm | - | 446 W/m² | - |
| 1777646924 | 10.56° C | 57% | 1011 hPa | 0 mm | - | 625 W/m² | - |
| 1777646624 | 10.56° C | 60% | 1011 hPa | 0 mm | - | 268 W/m² | - |
* Rain latest hour (hover to see other rain measurements)
** Current wind speed in m/s (hover to see current wind gust speed)